When you browse on this site, cookies collect data to enhance your experience and personalize the content and advertising you see.
Visit our Privacy Policy to learn more. By continuing to use the site, you agree to this use of cookies and data.
  • In Hungary
  • List of Countries
  • For 7 days
  • Water Temperature
  • Satellite Maps
  • Weather Map
  • News
  • Weather Widgets
  • user-avatar
    Login

    Hourly Weather Asuan

    Today, 20 January, Sunday

    Time Temperature Precipitation Wind Pressure Humidity
    00:00 +16°C° 0 mm 3 mps 746 mmHg 25%
    01:00 +14°C° 0 mm 3 mps 746 mmHg 27%
    02:00 +14°C° 0 mm 3 mps 746 mmHg 28%
    03:00 +14°C° 0 mm 3 mps 746 mmHg 30%
    04:00 +13°C° 0 mm 3 mps 746 mmHg 32%
    05:00 +13°C° 0 mm 3 mps 746 mmHg 34%
    06:00 +14°C° 0 mm 3 mps 746 mmHg 32%
    07:00 +16°C° 0 mm 2 mps 746 mmHg 31%
    08:00 +16°C° 0 mm 2 mps 746 mmHg 30%
    09:00 +18°C° 0 mm 2 mps 746 mmHg 26%
    10:00 +20°C° 0 mm 2 mps 746 mmHg 22%
    11:00 +23°C° 0 mm 2 mps 746 mmHg 18%
    12:00 +24°C° 0 mm 2 mps 745 mmHg 16%
    13:00 +25°C° 0 mm 2 mps 745 mmHg 15%
    14:00 +26°C° 0 mm 1 mps 744 mmHg 14%
    15:00 +25°C° 0 mm 1 mps 744 mmHg 15%
    16:00 +24°C° 0 mm 1 mps 744 mmHg 15%
    17:00 +24°C° 0 mm 1 mps 744 mmHg 16%
    18:00 +22°C° 0 mm 1 mps 744 mmHg 17%
    19:00 +21°C° 0 mm 1 mps 744 mmHg 19%
    20:00 +19°C° 0 mm 1 mps 744 mmHg 20%
    21:00 +18°C° 0 mm 2 mps 745 mmHg 20%
    22:00 +18°C° 0 mm 2 mps 745 mmHg 20%
    23:00 +18°C° 0 mm 2 mps 745 mmHg 20%

    Tomorrow, 21 January, Monday

    Time Temperature Precipitation Wind Pressure Humidity
    00:00 +18°C° 0 mm 2 mps 745 mmHg 21%
    01:00 +17°C° 0 mm 2 mps 745 mmHg 21%
    02:00 +17°C° 0 mm 2 mps 745 mmHg 21%
    03:00 +17°C° 0 mm 2 mps 745 mmHg 22%
    04:00 +16°C° 0 mm 3 mps 745 mmHg 22%
    05:00 +16°C° 0 mm 3 mps 745 mmHg 23%
    06:00 +17°C° 0 mm 3 mps 745 mmHg 22%
    07:00 +18°C° 0 mm 3 mps 745 mmHg 21%
    08:00 +19°C° 0 mm 3 mps 746 mmHg 20%
    09:00 +21°C° 0 mm 3 mps 746 mmHg 18%
    10:00 +24°C° 0 mm 2 mps 746 mmHg 16%
    11:00 +26°C° 0 mm 2 mps 745 mmHg 14%
    12:00 +26°C° 0 mm 1 mps 745 mmHg 13%
    13:00 +27°C° 0 mm 1 mps 744 mmHg 13%
    14:00 +26°C° 0 mm 0 mps 744 mmHg 12%
    15:00 +27°C° 0 mm 1 mps 744 mmHg 12%
    16:00 +26°C° 0 mm 1 mps 743 mmHg 12%
    17:00 +25°C° 0 mm 1 mps 743 mmHg 12%
    18:00 +24°C° 0 mm 1 mps 744 mmHg 13%
    19:00 +23°C° 0 mm 2 mps 744 mmHg 14%
    20:00 +21°C° 0 mm 2 mps 744 mmHg 15%
    21:00 +20°C° 0 mm 2 mps 744 mmHg 15%
    22:00 +20°C° 0 mm 2 mps 744 mmHg 16%
    23:00 +19°C° 0 mm 2 mps 744 mmHg 16%

    Day after tomorrow, 22 January, Tuesday

    Time Temperature Precipitation Wind Pressure Humidity
    00:00 +19°C° 0 mm 2 mps 744 mmHg 16%
    01:00 +19°C° 0 mm 2 mps 744 mmHg 16%
    02:00 +19°C° 0 mm 2 mps 744 mmHg 16%
    03:00 +18°C° 0 mm 2 mps 744 mmHg 16%
    04:00 +18°C° 0 mm 2 mps 744 mmHg 17%
    05:00 +18°C° 0 mm 2 mps 744 mmHg 17%
    06:00 +19°C° 0 mm 2 mps 744 mmHg 16%
    07:00 +19°C° 0 mm 2 mps 745 mmHg 16%
    08:00 +20°C° 0 mm 2 mps 745 mmHg 15%
    09:00 +22°C° 0 mm 3 mps 745 mmHg 14%
    10:00 +25°C° 0 mm 3 mps 745 mmHg 12%
    11:00 +27°C° 0 mm 3 mps 745 mmHg 11%
    12:00 +28°C° 0 mm 3 mps 744 mmHg 11%
    13:00 +29°C° 0 mm 3 mps 744 mmHg 10%
    14:00 +30°C° 0 mm 3 mps 743 mmHg 10%
    15:00 +29°C° 0 mm 3 mps 743 mmHg 10%
    16:00 +28°C° 0 mm 3 mps 743 mmHg 11%
    17:00 +27°C° 0 mm 3 mps 742 mmHg 11%
    18:00 +26°C° 0 mm 3 mps 743 mmHg 12%
    19:00 +25°C° 0 mm 3 mps 743 mmHg 13%
    20:00 +22°C° 0 mm 3 mps 743 mmHg 14%
    21:00 +22°C° 0 mm 4 mps 744 mmHg 14%
    22:00 +21°C° 0 mm 4 mps 744 mmHg 14%
    23:00 +21°C° 0 mm 4 mps 744 mmHg 14%

    23 January, Wednesday

    Time Temperature Precipitation Wind Pressure Humidity
    00:00 +20°C° 0 mm 4 mps 743 mmHg 15%
    01:00 +20°C° 0 mm 4 mps 743 mmHg 16%
    02:00 +19°C° 0 mm 4 mps 743 mmHg 17%
    03:00 +19°C° 0 mm 4 mps 743 mmHg 18%
    04:00 +18°C° 0 mm 4 mps 743 mmHg 18%
    05:00 +18°C° 0 mm 4 mps 742 mmHg 18%
    06:00 +19°C° 0 mm 4 mps 743 mmHg 18%
    07:00 +19°C° 0 mm 4 mps 743 mmHg 18%
    08:00 +20°C° 0 mm 4 mps 743 mmHg 18%
    09:00 +22°C° 0 mm 4 mps 743 mmHg 21%
    10:00 +25°C° 0 mm 4 mps 743 mmHg 25%
    11:00 +27°C° 0 mm 3 mps 743 mmHg 28%
    12:00 +28°C° 0 mm 3 mps 742 mmHg 26%
    13:00 +29°C° 0 mm 3 mps 741 mmHg 23%
    14:00 +30°C° 0 mm 2 mps 741 mmHg 21%
    15:00 +30°C° 0 mm 2 mps 740 mmHg 21%
    16:00 +29°C° 0 mm 2 mps 740 mmHg 21%
    17:00 +28°C° 0 mm 1 mps 740 mmHg 21%
    18:00 +26°C° 0 mm 1 mps 740 mmHg 23%
    19:00 +25°C° 0 mm 1 mps 741 mmHg 26%
    20:00 +23°C° 0 mm 1 mps 741 mmHg 28%
    21:00 +20°C° 0 mm 0 mps 741 mmHg 29%
    22:00 +20°C° 0 mm 0 mps 741 mmHg 30%
    23:00 +19°C° 0 mm 0 mps 741 mmHg 30%

    24 January, Thursday

    Time Temperature Precipitation Wind Pressure Humidity
    00:00 +19°C° 0 mm 0 mps 741 mmHg 30%
    01:00 +21°C° 0 mm 1 mps 741 mmHg 31%
    02:00 +21°C° 0 mm 1 mps 740 mmHg 31%
    03:00 +21°C° 0 mm 1 mps 740 mmHg 32%
    04:00 +20°C° 0 mm 1 mps 740 mmHg 32%
    05:00 +20°C° 0 mm 1 mps 740 mmHg 33%
    06:00 +21°C° 0 mm 2 mps 740 mmHg 31%
    07:00 +23°C° 0 mm 2 mps 741 mmHg 28%
    08:00 +25°C° 0 mm 3 mps 741 mmHg 26%
    09:00 +27°C° 0 mm 3 mps 741 mmHg 23%
    10:00 +30°C° 0 mm 4 mps 741 mmHg 20%
    11:00 +33°C° 0 mm 5 mps 741 mmHg 16%
    12:00 +34°C° 0 mm 5 mps 741 mmHg 14%
    13:00 +35°C° 0 mm 5 mps 740 mmHg 12%
    14:00 +37°C° 0 mm 5 mps 740 mmHg 10%
    15:00 +35°C° 0 mm 4 mps 740 mmHg 11%
    16:00 +34°C° 0 mm 3 mps 740 mmHg 12%
    17:00 +33°C° 0 mm 3 mps 740 mmHg 12%
    18:00 +31°C° 0 mm 3 mps 741 mmHg 12%
    19:00 +29°C° 0 mm 3 mps 741 mmHg 13%
    20:00 +28°C° 0 mm 4 mps 742 mmHg 13%
    21:00 +27°C° 0 mm 3 mps 742 mmHg 14%
    22:00 +25°C° 0 mm 2 mps 742 mmHg 14%
    23:00 +24°C° 0 mm 2 mps 742 mmHg 15%

    25 January, Friday

    Time Temperature Precipitation Wind Pressure Humidity
    00:00 +24°C° 0 mm 2 mps 742 mmHg 15%
    01:00 +24°C° 0 mm 2 mps 742 mmHg 15%
    02:00 +24°C° 0 mm 2 mps 741 mmHg 15%
    03:00 +23°C° 0 mm 2 mps 742 mmHg 16%
    04:00 +22°C° 0 mm 3 mps 742 mmHg 16%
    05:00 +22°C° 0 mm 3 mps 742 mmHg 17%
    06:00 +22°C° 0 mm 3 mps 742 mmHg 16%
    07:00 +24°C° 0 mm 3 mps 743 mmHg 16%
    08:00 +24°C° 0 mm 3 mps 743 mmHg 15%
    09:00 +26°C° 0 mm 4 mps 743 mmHg 14%
    10:00 +28°C° 0 mm 4 mps 743 mmHg 12%
    11:00 +30°C° 0 mm 4 mps 743 mmHg 11%
    12:00 +31°C° 0 mm 3 mps 742 mmHg 11%
    13:00 +32°C° 0 mm 2 mps 742 mmHg 12%
    14:00 +33°C° 0 mm 1 mps 741 mmHg 12%
    15:00 +34°C° 0 mm 2 mps 741 mmHg 12%
    16:00 +32°C° 0 mm 2 mps 741 mmHg 12%
    17:00 +33°C° 0 mm 3 mps 741 mmHg 12%
    18:00 +30°C° 0 mm 3 mps 741 mmHg 13%
    19:00 +29°C° 0 mm 3 mps 741 mmHg 14%
    20:00 +27°C° 0 mm 4 mps 742 mmHg 14%
    21:00 +26°C° 0 mm 3 mps 742 mmHg 14%
    22:00 +26°C° 0 mm 3 mps 742 mmHg 14%
    23:00 +25°C° 0 mm 2 mps 742 mmHg 15%
    Show more